Time,TemperatureF,DewpointF,PressureIn,WindDirection,WindDirectionDegrees,WindSpeedMPH,WindSpeedGustMPH,Humidity,HourlyPrecipIn,Conditions,Clouds,dailyrainin,SoftwareType,DateUTC
2013-03-12 00:00:00,47.3,46.6,29.74,South,183,0.0,12.0,97,0.07,,,0.42,meteohub,2013-03-12 04:00:00,
2013-03-12 00:05:00,47.5,46.8,29.74,SSE,164,1.0,9.0,97,0.08,,,0.43,meteohub,2013-03-12 04:05:00,
2013-03-12 00:10:00,47.5,46.8,29.74,SSE,163,3.0,9.0,97,0.08,,,0.43,meteohub,2013-03-12 04:10:00,
2013-03-12 00:15:00,47.7,46.9,29.74,SE,125,0.0,9.0,97,0.08,,,0.43,meteohub,2013-03-12 04:15:00,
2013-03-12 00:20:00,47.7,46.9,29.74,SE,125,0.0,9.0,97,0.07,,,0.44,meteohub,2013-03-12 04:20:00,
2013-03-12 00:25:00,47.7,46.9,29.73,South,185,0.0,9.0,97,0.06,,,0.44,meteohub,2013-03-12 04:25:00,
2013-03-12 00:30:00,47.8,46.9,29.73,SE,125,0.0,9.0,97,0.06,,,0.45,meteohub,2013-03-12 04:30:00,
2013-03-12 00:35:00,47.7,46.9,29.73,SSE,151,1.0,8.0,97,0.06,,,0.45,meteohub,2013-03-12 04:35:00,
2013-03-12 00:40:00,47.8,46.9,29.73,SE,133,0.0,8.0,97,0.05,,,0.45,meteohub,2013-03-12 04:40:00,
2013-03-12 00:45:00,47.8,46.9,29.73,South,175,1.0,8.0,97,0.05,,,0.46,meteohub,2013-03-12 04:45:00,
2013-03-12 00:50:00,47.8,46.9,29.73,South,179,0.0,8.0,97,0.05,,,0.46,meteohub,2013-03-12 04:50:00,
2013-03-12 00:55:00,47.7,46.9,29.72,East,86,0.0,8.0,97,0.04,,,0.46,meteohub,2013-03-12 04:55:00,
2013-03-12 01:00:00,47.7,46.9,29.72,South,169,0.0,8.0,97,0.05,,,0.47,meteohub,2013-03-12 05:00:00,
2013-03-12 01:05:00,47.7,46.9,29.72,SSE,167,0.0,6.0,97,0.04,,,0.47,meteohub,2013-03-12 05:05:00,
2013-03-12 01:10:00,47.7,46.9,29.71,ESE,120,0.0,5.0,97,0.05,,,0.48,meteohub,2013-03-12 05:10:00,
2013-03-12 01:15:00,47.7,46.9,29.71,ESE,120,0.0,5.0,97,0.04,,,0.48,meteohub,2013-03-12 05:15:00,
2013-03-12 01:20:00,47.7,46.9,29.71,SE,143,0.0,7.0,97,0.05,,,0.49,meteohub,2013-03-12 05:20:00,
2013-03-12 01:25:00,47.7,46.9,29.71,SE,129,0.0,7.0,97,0.05,,,0.49,meteohub,2013-03-12 05:25:00,
2013-03-12 01:30:00,47.7,46.9,29.71,SE,129,0.0,7.0,97,0.05,,,0.50,meteohub,2013-03-12 05:30:00,
2013-03-12 01:35:00,47.7,46.9,29.71,SE,129,0.0,1.0,97,0.06,,,0.51,meteohub,2013-03-12 05:35:00,
2013-03-12 01:40:00,47.7,46.9,29.71,SE,129,0.0,1.0,97,0.09,,,0.52,meteohub,2013-03-12 05:40:00,
2013-03-12 01:46:00,47.7,46.9,29.71,SE,129,0.0,0.0,97,0.08,,,0.54,meteohub,2013-03-12 05:46:00,
2013-03-12 01:51:00,47.7,46.9,29.71,SE,129,0.0,0.0,97,0.09,,,0.55,meteohub,2013-03-12 05:51:00,
2013-03-12 01:56:00,47.7,46.9,29.71,SE,129,0.0,0.0,97,0.10,,,0.56,meteohub,2013-03-12 05:56:00,
2013-03-12 02:01:00,47.7,46.9,29.71,SE,129,0.0,0.0,97,0.09,,,0.56,meteohub,2013-03-12 06:01:00,
2013-03-12 02:06:00,47.5,46.8,29.71,SE,129,0.0,0.0,97,0.09,,,0.57,meteohub,2013-03-12 06:06:00,
2013-03-12 02:11:00,47.5,46.8,29.71,SE,129,0.0,0.0,97,0.11,,,0.59,meteohub,2013-03-12 06:11:00,
2013-03-12 02:16:00,47.5,46.8,29.71,SE,129,0.0,0.0,97,0.13,,,0.61,meteohub,2013-03-12 06:16:00,
2013-03-12 02:21:00,47.5,46.9,29.71,SE,129,0.0,0.0,98,0.12,,,0.61,meteohub,2013-03-12 06:21:00,
2013-03-12 02:26:00,47.5,46.9,29.71,SE,129,0.0,0.0,98,0.12,,,0.61,meteohub,2013-03-12 06:26:00,
2013-03-12 02:31:00,47.5,46.9,29.71,SE,129,0.0,0.0,98,0.11,,,0.61,meteohub,2013-03-12 06:31:00,
2013-03-12 02:36:00,47.5,46.9,29.72,SE,129,0.0,0.0,98,0.10,,,0.61,meteohub,2013-03-12 06:36:00,
2013-03-12 02:41:00,47.5,46.9,29.71,SE,129,0.0,0.0,98,0.07,,,0.61,meteohub,2013-03-12 06:41:00,
2013-03-12 02:46:00,47.5,46.9,29.71,SE,129,0.0,0.0,98,0.06,,,0.61,meteohub,2013-03-12 06:46:00,
2013-03-12 02:51:00,47.5,46.9,29.72,SE,129,0.0,0.0,98,0.06,,,0.61,meteohub,2013-03-12 06:51:00,
2013-03-12 02:56:00,47.5,46.9,29.71,SE,129,0.0,0.0,98,0.06,,,0.62,meteohub,2013-03-12 06:56:00,
2013-03-12 03:01:00,47.5,46.9,29.70,SE,129,0.0,0.0,98,0.06,,,0.62,meteohub,2013-03-12 07:01:00,
2013-03-12 03:07:00,47.3,46.6,29.70,SE,129,0.0,0.0,97,0.04,,,0.62,meteohub,2013-03-12 07:07:00,
2013-03-12 03:12:00,47.1,46.4,29.70,SE,129,0.0,0.0,97,0.02,,,0.62,meteohub,2013-03-12 07:12:00,
2013-03-12 03:17:00,47.1,46.4,29.70,SE,129,0.0,0.0,97,0.01,,,0.62,meteohub,2013-03-12 07:17:00,
2013-03-12 03:22:00,47.1,46.4,29.70,SE,129,0.0,0.0,97,0.01,,,0.62,meteohub,2013-03-12 07:22:00,
2013-03-12 03:27:00,47.1,46.4,29.70,SE,129,0.0,0.0,97,0.01,,,0.62,meteohub,2013-03-12 07:27:00,
2013-03-12 03:32:00,47.1,46.4,29.70,SE,129,0.0,0.0,97,0.01,,,0.62,meteohub,2013-03-12 07:32:00,
2013-03-12 03:37:00,47.1,46.4,29.70,SE,129,0.0,0.0,97,0.01,,,0.62,meteohub,2013-03-12 07:37:00,
2013-03-12 03:42:00,46.9,46.2,29.70,SE,129,0.0,0.0,97,0.01,,,0.62,meteohub,2013-03-12 07:42:00,
2013-03-12 03:47:00,46.9,46.2,29.70,SE,129,0.0,0.0,97,0.01,,,0.62,meteohub,2013-03-12 07:47:00,
2013-03-12 03:52:00,46.8,46.0,29.70,SE,129,0.0,0.0,97,0.01,,,0.62,meteohub,2013-03-12 07:52:00,
2013-03-12 03:57:00,46.4,45.7,29.70,WNW,302,0.0,2.0,97,0.00,,,0.62,meteohub,2013-03-12 07:57:00,
2013-03-12 04:02:00,46.2,45.5,29.70,WNW,302,1.0,8.0,97,0.00,,,0.62,meteohub,2013-03-12 08:02:00,
2013-03-12 04:07:00,45.9,45.1,29.70,WNW,302,0.0,8.0,97,0.00,,,0.62,meteohub,2013-03-12 08:07:00,
2013-03-12 04:12:00,45.5,44.8,29.70,WNW,302,0.0,5.0,97,0.00,,,0.62,meteohub,2013-03-12 08:12:00,
2013-03-12 04:17:00,45.1,44.4,29.70,WNW,302,0.0,3.0,97,0.00,,,0.62,meteohub,2013-03-12 08:17:00,
2013-03-12 04:22:00,44.8,44.1,29.70,WNW,302,0.0,0.0,97,0.00,,,0.62,meteohub,2013-03-12 08:22:00,
2013-03-12 04:27:00,44.8,44.1,29.70,WNW,302,0.0,0.0,97,0.00,,,0.62,meteohub,2013-03-12 08:27:00,
2013-03-12 04:32:00,44.8,44.1,29.70,WNW,302,0.0,0.0,97,0.00,,,0.62,meteohub,2013-03-12 08:32:00,
2013-03-12 04:37:00,44.8,44.1,29.69,WNW,302,0.0,0.0,97,0.00,,,0.62,meteohub,2013-03-12 08:37:00,
2013-03-12 04:42:00,44.8,44.1,29.69,WNW,302,0.0,0.0,97,0.00,,,0.62,meteohub,2013-03-12 08:42:00,
2013-03-12 04:47:00,44.8,44.1,29.69,WNW,302,0.0,0.0,97,0.00,,,0.62,meteohub,2013-03-12 08:47:00,
2013-03-12 04:52:00,44.8,44.1,29.69,WNW,302,0.0,0.0,97,0.00,,,0.62,meteohub,2013-03-12 08:52:00,
2013-03-12 04:57:00,44.8,44.1,29.70,WNW,302,0.0,0.0,97,0.00,,,0.62,meteohub,2013-03-12 08:57:00,
2013-03-12 05:02:00,44.8,44.1,29.69,WNW,302,0.0,0.0,97,0.00,,,0.62,meteohub,2013-03-12 09:02:00,
2013-03-12 05:07:00,44.8,44.1,29.70,WNW,302,0.0,0.0,97,0.00,,,0.62,meteohub,2013-03-12 09:07:00,
2013-03-12 05:12:00,44.4,43.7,29.70,WNW,302,0.0,0.0,97,0.00,,,0.62,meteohub,2013-03-12 09:12:00,
2013-03-12 05:17:00,44.2,43.5,29.69,WNW,302,0.0,3.0,97,0.00,,,0.62,meteohub,2013-03-12 09:17:00,
2013-03-12 05:22:00,44.1,43.3,29.69,WNW,302,2.0,3.0,97,0.00,,,0.62,meteohub,2013-03-12 09:22:00,
2013-03-12 05:27:00,43.9,43.2,29.69,WNW,302,0.0,3.0,97,0.00,,,0.62,meteohub,2013-03-12 09:27:00,
2013-03-12 05:32:00,43.7,43.0,29.69,WNW,302,0.0,3.0,97,0.00,,,0.62,meteohub,2013-03-12 09:32:00,
2013-03-12 05:38:00,43.7,43.0,29.69,WNW,302,0.0,2.0,97,0.00,,,0.62,meteohub,2013-03-12 09:38:00,
2013-03-12 05:43:00,43.7,43.0,29.69,WNW,302,0.0,0.0,97,0.00,,,0.62,meteohub,2013-03-12 09:43:00,
2013-03-12 05:48:00,43.7,43.0,29.70,WNW,302,0.0,0.0,97,0.00,,,0.62,meteohub,2013-03-12 09:48:00,
2013-03-12 05:53:00,43.3,42.6,29.70,NW,322,0.0,0.0,97,0.00,,,0.62,meteohub,2013-03-12 09:53:00,
2013-03-12 05:58:00,43.2,42.4,29.70,WNW,300,4.0,0.0,97,0.00,,,0.62,meteohub,2013-03-12 09:58:00,
2013-03-12 06:03:00,43.0,42.3,29.70,WNW,300,0.0,8.0,97,0.00,,,0.62,meteohub,2013-03-12 10:03:00,
2013-03-12 06:08:00,42.8,42.1,29.70,NW,305,1.0,8.0,97,0.00,,,0.62,meteohub,2013-03-12 10:08:00,
2013-03-12 06:13:00,42.6,41.9,29.70,WNW,299,0.0,8.0,97,0.00,,,0.62,meteohub,2013-03-12 10:13:00,
2013-03-12 06:18:00,42.4,41.7,29.70,WNW,299,0.0,9.0,97,0.00,,,0.62,meteohub,2013-03-12 10:18:00,
2013-03-12 06:23:00,42.4,41.7,29.70,WNW,299,0.0,9.0,97,0.00,,,0.62,meteohub,2013-03-12 10:23:00,
2013-03-12 06:28:00,42.4,41.7,29.71,NNW,329,2.0,6.0,97,0.00,,,0.62,meteohub,2013-03-12 10:28:00,
2013-03-12 06:33:00,42.4,41.7,29.71,NNW,333,0.0,6.0,97,0.00,,,0.62,meteohub,2013-03-12 10:33:00,
2013-03-12 06:38:00,42.3,41.5,29.70,WNW,296,0.0,6.0,97,0.00,,,0.62,meteohub,2013-03-12 10:38:00,
2013-03-12 06:43:00,42.1,41.4,29.70,WNW,299,0.0,9.0,97,0.01,,,0.63,meteohub,2013-03-12 10:43:00,
2013-03-12 06:48:00,41.9,41.2,29.70,WNW,299,0.0,9.0,97,0.01,,,0.63,meteohub,2013-03-12 10:48:00,
2013-03-12 06:53:00,41.7,41.0,29.70,WNW,298,0.0,8.0,97,0.01,,,0.63,meteohub,2013-03-12 10:53:00,
2013-03-12 06:58:00,41.5,40.8,29.71,WNW,299,0.0,0.0,97,0.01,,,0.63,meteohub,2013-03-12 10:58:00,
2013-03-12 07:03:00,41.5,40.8,29.71,WNW,298,0.0,1.0,97,0.01,,,0.63,meteohub,2013-03-12 11:03:00,
2013-03-12 07:08:00,41.5,40.8,29.72,WNW,300,2.0,6.0,97,0.01,,,0.63,meteohub,2013-03-12 11:08:00,
2013-03-12 07:13:00,41.4,40.6,29.72,NW,314,0.0,6.0,97,0.01,,,0.63,meteohub,2013-03-12 11:13:00,
2013-03-12 07:18:00,41.2,40.5,29.71,NW,314,0.0,9.0,97,0.01,,,0.63,meteohub,2013-03-12 11:18:00,
2013-03-12 07:23:00,41.2,40.5,29.72,NW,314,0.0,9.0,97,0.01,,,0.63,meteohub,2013-03-12 11:23:00,
2013-03-12 07:28:00,41.2,40.5,29.72,NW,314,0.0,6.0,97,0.01,,,0.63,meteohub,2013-03-12 11:28:00,
2013-03-12 07:33:00,40.8,40.1,29.72,NW,310,0.0,3.0,97,0.01,,,0.63,meteohub,2013-03-12 11:33:00,
2013-03-12 07:38:00,40.6,39.9,29.73,NW,316,2.0,4.0,97,0.00,,,0.63,meteohub,2013-03-12 11:38:00,
2013-03-12 07:43:00,40.5,39.7,29.73,NNW,330,0.0,6.0,97,0.00,,,0.63,meteohub,2013-03-12 11:43:00,
2013-03-12 07:48:00,40.3,39.6,29.73,WNW,298,4.0,6.0,97,0.00,,,0.63,meteohub,2013-03-12 11:48:00,
2013-03-12 07:53:00,39.9,39.2,29.73,WNW,297,1.0,6.0,97,0.00,,,0.63,meteohub,2013-03-12 11:53:00,
2013-03-12 07:58:00,39.7,39.0,29.74,NNW,335,3.0,7.0,97,0.00,,,0.63,meteohub,2013-03-12 11:58:00,
2013-03-12 08:03:00,39.0,38.3,29.74,NNW,347,11.0,11.0,97,0.00,,,0.63,meteohub,2013-03-12 12:03:00,
2013-03-12 08:08:00,38.8,38.1,29.75,WNW,303,1.0,13.0,97,0.00,,,0.63,meteohub,2013-03-12 12:08:00,
2013-03-12 08:13:00,38.5,37.8,29.75,NNW,329,0.0,13.0,97,0.00,,,0.63,meteohub,2013-03-12 12:13:00,
2013-03-12 08:18:00,37.8,37.0,29.75,NW,323,2.0,13.0,97,0.00,,,0.63,meteohub,2013-03-12 12:18:00,
2013-03-12 08:23:00,37.4,36.7,29.75,WNW,303,0.0,12.0,97,0.00,,,0.63,meteohub,2013-03-12 12:23:00,
2013-03-12 08:28:00,37.0,36.3,29.75,NW,322,0.0,12.0,97,0.00,,,0.63,meteohub,2013-03-12 12:28:00,
2013-03-12 08:33:00,37.2,36.5,29.75,NW,310,0.0,9.0,97,0.00,,,0.63,meteohub,2013-03-12 12:33:00,
2013-03-12 08:38:00,37.2,36.5,29.76,NW,308,0.0,9.0,97,0.00,,,0.63,meteohub,2013-03-12 12:38:00,
2013-03-12 08:43:00,37.2,36.5,29.76,NW,307,0.0,6.0,97,0.00,,,0.63,meteohub,2013-03-12 12:43:00,
2013-03-12 08:48:00,36.9,36.1,29.77,NW,315,3.0,6.0,97,0.00,,,0.63,meteohub,2013-03-12 12:48:00,
2013-03-12 08:53:00,36.1,35.4,29.77,NW,313,1.0,13.0,97,0.00,,,0.63,meteohub,2013-03-12 12:53:00,
2013-03-12 08:58:00,36.1,35.4,29.77,NNW,329,0.0,13.0,97,0.00,,,0.63,meteohub,2013-03-12 12:58:00,
2013-03-12 09:03:00,36.1,35.4,29.77,NW,320,0.0,13.0,97,0.00,,,0.63,meteohub,2013-03-12 13:03:00,
2013-03-12 09:08:00,36.0,35.2,29.78,NNW,329,0.0,12.0,97,0.00,,,0.63,meteohub,2013-03-12 13:08:00,
2013-03-12 09:13:00,36.0,35.2,29.78,NNW,329,0.0,10.0,97,0.00,,,0.63,meteohub,2013-03-12 13:13:00,
2013-03-12 09:18:00,36.1,35.4,29.77,NNW,329,0.0,9.0,97,0.00,,,0.63,meteohub,2013-03-12 13:18:00,
2013-03-12 09:23:00,36.0,35.2,29.77,WNW,298,0.0,8.0,97,0.00,,,0.63,meteohub,2013-03-12 13:23:00,
2013-03-12 09:28:00,35.8,35.1,29.77,NW,320,0.0,6.0,97,0.00,,,0.63,meteohub,2013-03-12 13:28:00,
2013-03-12 09:33:00,35.4,34.7,29.77,NW,305,2.0,6.0,97,0.00,,,0.63,meteohub,2013-03-12 13:33:00,
2013-03-12 09:38:00,35.4,34.7,29.77,WNW,300,0.0,8.0,97,0.00,,,0.63,meteohub,2013-03-12 13:38:00,
2013-03-12 09:43:00,35.4,34.7,29.77,WNW,300,0.0,8.0,97,0.00,,,0.63,meteohub,2013-03-12 13:43:00,
2013-03-12 09:48:00,35.4,34.7,29.77,WNW,300,0.0,5.0,97,0.00,,,0.63,meteohub,2013-03-12 13:48:00,
2013-03-12 09:53:00,35.8,35.1,29.78,WNW,300,0.0,5.0,97,0.00,,,0.63,meteohub,2013-03-12 13:53:00,
2013-03-12 09:59:00,35.8,35.1,29.78,WNW,300,0.0,4.0,97,0.00,,,0.63,meteohub,2013-03-12 13:59:00,
2013-03-12 10:04:00,36.1,35.4,29.78,WNW,300,0.0,0.0,97,0.00,,,0.63,meteohub,2013-03-12 14:04:00,
2013-03-12 10:09:00,36.5,35.8,29.78,WNW,300,0.0,0.0,97,0.00,,,0.63,meteohub,2013-03-12 14:09:00,
2013-03-12 10:14:00,36.9,36.1,29.78,WNW,300,0.0,0.0,97,0.00,,,0.63,meteohub,2013-03-12 14:14:00,
2013-03-12 10:19:00,37.2,36.5,29.78,WNW,300,0.0,0.0,97,0.00,,,0.63,meteohub,2013-03-12 14:19:00,
2013-03-12 10:24:00,37.6,36.9,29.78,WNW,300,0.0,0.0,97,0.00,,,0.63,meteohub,2013-03-12 14:24:00,
2013-03-12 10:29:00,37.9,37.2,29.78,WNW,300,0.0,0.0,97,0.00,,,0.63,meteohub,2013-03-12 14:29:00,
2013-03-12 10:34:00,38.3,37.6,29.78,WNW,300,0.0,0.0,97,0.00,,,0.63,meteohub,2013-03-12 14:34:00,
2013-03-12 10:39:00,38.3,37.6,29.78,WNW,300,0.0,0.0,97,0.00,,,0.63,meteohub,2013-03-12 14:39:00,
2013-03-12 10:44:00,38.7,37.9,29.78,WNW,300,0.0,0.0,97,0.00,,,0.63,meteohub,2013-03-12 14:44:00,
2013-03-12 10:49:00,38.8,38.1,29.78,NW,315,0.0,0.0,97,0.00,,,0.63,meteohub,2013-03-12 14:49:00,
2013-03-12 10:54:00,39.4,38.7,29.78,NW,315,0.0,0.0,97,0.00,,,0.63,meteohub,2013-03-12 14:54:00,
2013-03-12 10:59:00,39.7,39.0,29.78,NW,315,0.0,0.0,97,0.00,,,0.63,meteohub,2013-03-12 14:59:00,
2013-03-12 11:04:00,39.9,39.2,29.78,NW,315,0.0,0.0,97,0.00,,,0.63,meteohub,2013-03-12 15:04:00,
2013-03-12 11:09:00,40.5,39.7,29.78,NW,315,0.0,0.0,97,0.00,,,0.63,meteohub,2013-03-12 15:09:00,
2013-03-12 11:14:00,40.6,39.9,29.79,NW,322,0.0,0.0,97,0.00,,,0.63,meteohub,2013-03-12 15:14:00,
2013-03-12 11:19:00,40.8,39.7,29.79,NW,322,0.0,0.0,96,0.00,,,0.63,meteohub,2013-03-12 15:19:00,
2013-03-12 11:24:00,41.4,40.3,29.79,NW,322,0.0,0.0,96,0.00,,,0.63,meteohub,2013-03-12 15:24:00,
2013-03-12 11:29:00,41.9,40.6,29.79,NW,322,0.0,0.0,95,0.00,,,0.63,meteohub,2013-03-12 15:29:00,
2013-03-12 11:34:00,42.6,41.0,29.79,NW,322,0.0,0.0,94,0.00,,,0.63,meteohub,2013-03-12 15:34:00,
2013-03-12 11:39:00,43.2,41.0,29.79,NW,322,0.0,0.0,92,0.00,,,0.63,meteohub,2013-03-12 15:39:00,
2013-03-12 11:44:00,43.7,41.2,29.79,NW,322,0.0,0.0,91,0.00,,,0.63,meteohub,2013-03-12 15:44:00,
2013-03-12 11:49:00,44.1,41.0,29.80,NW,322,0.0,0.0,89,0.00,,,0.63,meteohub,2013-03-12 15:49:00,
2013-03-12 11:54:00,44.2,41.5,29.80,NW,322,0.0,1.0,90,0.00,,,0.63,meteohub,2013-03-12 15:54:00,
2013-03-12 11:59:00,45.0,42.3,29.80,NW,322,0.0,1.0,90,0.00,,,0.63,meteohub,2013-03-12 15:59:00,
2013-03-12 12:04:00,45.7,42.1,29.80,South,179,0.0,1.0,87,0.00,,,0.63,meteohub,2013-03-12 16:04:00,
2013-03-12 12:09:00,45.5,39.7,29.80,NW,304,0.0,0.0,80,0.00,,,0.63,meteohub,2013-03-12 16:09:00,
2013-03-12 12:14:00,45.0,38.1,29.81,NW,307,0.0,2.0,77,0.00,,,0.63,meteohub,2013-03-12 16:14:00,
2013-03-12 12:19:00,45.0,36.9,29.81,WNW,293,2.0,5.0,73,0.00,,,0.63,meteohub,2013-03-12 16:19:00,
2013-03-12 12:24:00,45.3,38.1,29.81,WNW,300,10.0,10.0,76,0.00,,,0.63,meteohub,2013-03-12 16:24:00,
2013-03-12 12:29:00,45.5,37.4,29.81,NNW,328,0.0,10.0,73,0.00,,,0.63,meteohub,2013-03-12 16:29:00,
2013-03-12 12:34:00,46.0,38.8,29.81,WNW,299,9.0,10.0,76,0.00,,,0.63,meteohub,2013-03-12 16:34:00,
2013-03-12 12:39:00,46.4,37.2,29.81,NW,304,3.0,10.0,70,0.00,,,0.63,meteohub,2013-03-12 16:39:00,
2013-03-12 12:44:00,46.6,37.0,29.81,WNW,300,4.0,11.0,69,0.00,,,0.63,meteohub,2013-03-12 16:44:00,
2013-03-12 12:49:00,46.2,36.7,29.81,WNW,303,0.0,11.0,69,0.00,,,0.63,meteohub,2013-03-12 16:49:00,
2013-03-12 12:54:00,46.2,36.7,29.82,NW,306,3.0,11.0,69,0.00,,,0.63,meteohub,2013-03-12 16:54:00,
2013-03-12 12:59:00,46.0,36.1,29.81,WNW,289,2.0,12.0,68,0.00,,,0.63,meteohub,2013-03-12 16:59:00,
2013-03-12 13:04:00,46.0,37.6,29.82,NNW,335,4.0,12.0,72,0.00,,,0.63,meteohub,2013-03-12 17:04:00,
2013-03-12 13:09:00,46.4,37.2,29.82,WNW,293,13.0,13.0,70,0.00,,,0.63,meteohub,2013-03-12 17:09:00,
2013-03-12 13:15:00,46.6,36.5,29.82,WNW,293,0.0,13.0,68,0.00,,,0.63,meteohub,2013-03-12 17:15:00,
2013-03-12 13:20:00,46.9,37.2,29.82,NNW,343,0.0,13.0,69,0.00,,,0.63,meteohub,2013-03-12 17:20:00,
2013-03-12 13:25:00,47.5,36.3,29.82,NNW,344,0.0,13.0,65,0.00,,,0.63,meteohub,2013-03-12 17:25:00,
2013-03-12 13:30:00,46.9,36.1,29.82,WNW,296,6.0,13.0,66,0.00,,,0.63,meteohub,2013-03-12 17:30:00,
2013-03-12 13:35:00,46.9,35.8,29.81,NW,310,0.0,13.0,65,0.00,,,0.63,meteohub,2013-03-12 17:35:00,
2013-03-12 13:40:00,48.0,37.2,29.82,NW,304,6.0,13.0,66,0.00,,,0.63,meteohub,2013-03-12 17:40:00,
2013-03-12 13:45:00,48.4,36.0,29.82,NW,310,4.0,13.0,62,0.00,,,0.63,meteohub,2013-03-12 17:45:00,
2013-03-12 13:50:00,48.2,37.0,29.82,NW,317,0.0,12.0,65,0.00,,,0.63,meteohub,2013-03-12 17:50:00,
2013-03-12 13:55:00,49.1,37.8,29.82,NW,317,0.0,12.0,65,0.00,,,0.63,meteohub,2013-03-12 17:55:00,
2013-03-12 14:00:00,50.0,38.3,29.82,NW,317,0.0,11.0,64,0.00,,,0.63,meteohub,2013-03-12 18:00:00,
2013-03-12 14:05:00,50.7,37.8,29.81,NW,317,0.0,3.0,61,0.00,,,0.63,meteohub,2013-03-12 18:05:00,
2013-03-12 14:10:00,50.5,37.2,29.82,WNW,299,0.0,6.0,60,0.00,,,0.63,meteohub,2013-03-12 18:10:00,
2013-03-12 14:15:00,50.7,36.5,29.82,WNW,296,5.0,9.0,58,0.00,,,0.63,meteohub,2013-03-12 18:15:00,
2013-03-12 14:20:00,50.2,36.0,29.82,NW,308,11.0,11.0,58,0.00,,,0.63,meteohub,2013-03-12 18:20:00,
2013-03-12 14:25:00,49.8,37.8,29.82,NW,306,0.0,15.0,63,0.00,,,0.63,meteohub,2013-03-12 18:25:00,
2013-03-12 14:30:00,50.2,37.6,29.82,WNW,302,0.0,15.0,62,0.00,,,0.63,meteohub,2013-03-12 18:30:00,
2013-03-12 14:35:00,50.2,37.6,29.82,WNW,295,4.0,12.0,62,0.00,,,0.63,meteohub,2013-03-12 18:35:00,
2013-03-12 14:40:00,50.2,39.2,29.81,WNW,297,5.0,12.0,66,0.00,,,0.63,meteohub,2013-03-12 18:40:00,
2013-03-12 14:45:00,50.7,38.7,29.81,NNW,339,2.0,11.0,63,0.00,,,0.63,meteohub,2013-03-12 18:45:00,
2013-03-12 14:50:00,51.1,37.2,29.81,NW,310,0.0,11.0,59,0.00,,,0.63,meteohub,2013-03-12 18:50:00,
2013-03-12 14:55:00,51.1,36.9,29.81,WNW,301,2.0,11.0,58,0.00,,,0.63,meteohub,2013-03-12 18:55:00,
2013-03-12 15:00:00,51.1,36.3,29.81,WNW,293,1.0,10.0,57,0.00,,,0.63,meteohub,2013-03-12 19:00:00,
2013-03-12 15:05:00,51.3,36.1,29.81,NNW,331,3.0,14.0,56,0.00,,,0.63,meteohub,2013-03-12 19:05:00,
2013-03-12 15:10:00,50.5,35.1,29.81,WNW,298,9.0,17.0,55,0.00,,,0.63,meteohub,2013-03-12 19:10:00,
2013-03-12 15:15:00,50.4,32.9,29.81,WNW,291,8.0,17.0,51,0.00,,,0.63,meteohub,2013-03-12 19:15:00,
2013-03-12 15:20:00,49.8,32.9,29.81,South,181,4.0,16.0,52,0.00,,,0.63,meteohub,2013-03-12 19:20:00,
2013-03-12 15:25:00,49.6,33.6,29.81,NW,310,8.0,16.0,54,0.00,,,0.63,meteohub,2013-03-12 19:25:00,
2013-03-12 15:30:00,49.3,32.4,29.81,NW,312,8.0,16.0,52,0.00,,,0.63,meteohub,2013-03-12 19:30:00,
2013-03-12 15:35:00,48.9,33.1,29.81,NNW,340,1.0,16.0,54,0.00,,,0.63,meteohub,2013-03-12 19:35:00,
2013-03-12 15:40:00,49.3,32.4,29.81,NW,318,1.0,16.0,52,0.00,,,0.63,meteohub,2013-03-12 19:40:00,
2013-03-12 15:45:00,49.3,33.3,29.81,North,352,7.0,16.0,54,0.00,,,0.63,meteohub,2013-03-12 19:45:00,
2013-03-12 15:50:00,49.1,32.2,29.81,NW,319,5.0,18.0,52,0.00,,,0.63,meteohub,2013-03-12 19:50:00,
2013-03-12 15:56:00,49.5,32.0,29.81,WNW,302,10.0,18.0,51,0.00,,,0.63,meteohub,2013-03-12 19:56:00,
2013-03-12 16:01:00,48.9,31.1,29.81,NNW,329,4.0,18.0,50,0.00,,,0.63,meteohub,2013-03-12 20:01:00,
2013-03-12 16:06:00,48.9,31.1,29.81,WNW,297,18.0,18.0,50,0.00,,,0.63,meteohub,2013-03-12 20:06:00,
2013-03-12 16:11:00,48.9,32.0,29.82,NW,316,14.0,23.0,52,0.00,,,0.63,meteohub,2013-03-12 20:11:00,
2013-03-12 16:16:00,48.7,29.8,29.82,WNW,300,4.0,23.0,48,0.00,,,0.63,meteohub,2013-03-12 20:16:00,
2013-03-12 16:21:00,48.7,30.4,29.82,WNW,302,4.0,21.0,49,0.00,,,0.63,meteohub,2013-03-12 20:21:00,
2013-03-12 16:26:00,48.6,31.8,29.82,NW,304,12.0,21.0,52,0.00,,,0.63,meteohub,2013-03-12 20:26:00,
2013-03-12 16:31:00,48.9,33.1,29.82,NW,304,2.0,19.0,54,0.00,,,0.63,meteohub,2013-03-12 20:31:00,
2013-03-12 16:36:00,49.6,32.2,29.82,WNW,291,0.0,19.0,51,0.00,,,0.63,meteohub,2013-03-12 20:36:00,
2013-03-12 16:41:00,49.8,32.0,29.82,WNW,302,8.0,18.0,50,0.00,,,0.63,meteohub,2013-03-12 20:41:00,
2013-03-12 16:46:00,49.8,32.0,29.82,NW,324,5.0,14.0,50,0.00,,,0.63,meteohub,2013-03-12 20:46:00,
2013-03-12 16:51:00,49.6,30.2,29.83,NW,325,6.0,14.0,47,0.00,,,0.63,meteohub,2013-03-12 20:51:00,
2013-03-12 16:56:00,49.8,28.8,29.82,WNW,300,0.0,15.0,44,0.00,,,0.63,meteohub,2013-03-12 20:56:00,
2013-03-12 17:02:00,50.2,28.6,29.82,NW,323,3.0,15.0,43,0.00,,,0.63,meteohub,2013-03-12 21:02:00,
2013-03-12 17:07:00,50.5,30.0,29.82,WNW,302,2.0,17.0,45,0.00,,,0.63,meteohub,2013-03-12 21:07:00,
2013-03-12 17:12:00,50.7,29.7,29.82,NW,312,6.0,17.0,44,0.00,,,0.63,meteohub,2013-03-12 21:12:00,
2013-03-12 17:17:00,50.4,28.8,29.82,NW,326,4.0,17.0,43,0.00,,,0.63,meteohub,2013-03-12 21:17:00,
2013-03-12 17:22:00,50.2,28.6,29.82,NNW,331,4.0,12.0,43,0.00,,,0.63,meteohub,2013-03-12 21:22:00,
2013-03-12 17:27:00,49.6,27.0,29.82,NNW,329,8.0,12.0,41,0.00,,,0.63,meteohub,2013-03-12 21:27:00,
2013-03-12 17:32:00,49.5,27.3,29.83,NNW,327,1.0,12.0,42,0.00,,,0.63,meteohub,2013-03-12 21:32:00,
2013-03-12 17:37:00,48.9,26.2,29.83,NW,304,2.0,15.0,41,0.00,,,0.63,meteohub,2013-03-12 21:37:00,
2013-03-12 17:42:00,48.6,26.4,29.83,WNW,302,10.0,15.0,42,0.00,,,0.63,meteohub,2013-03-12 21:42:00,
2013-03-12 17:47:00,48.6,25.3,29.83,NW,317,8.0,21.0,40,0.00,,,0.63,meteohub,2013-03-12 21:47:00,
2013-03-12 17:53:00,48.0,25.5,29.83,NW,320,0.0,21.0,41,0.00,,,0.63,meteohub,2013-03-12 21:53:00,
2013-03-12 17:58:00,48.2,25.0,29.83,NW,318,3.0,21.0,40,0.00,,,0.63,meteohub,2013-03-12 21:58:00,
2013-03-12 18:03:00,47.8,25.3,29.83,WNW,295,12.0,20.0,41,0.00,,,0.63,meteohub,2013-03-12 22:03:00,
2013-03-12 18:08:00,47.7,25.7,29.84,NW,326,3.0,16.0,42,0.00,,,0.63,meteohub,2013-03-12 22:08:00,
2013-03-12 18:13:00,47.5,26.1,29.84,NW,306,8.0,16.0,43,0.00,,,0.63,meteohub,2013-03-12 22:13:00,
2013-03-12 18:18:00,47.3,26.4,29.84,NNW,328,4.0,16.0,44,0.00,,,0.63,meteohub,2013-03-12 22:18:00,
2013-03-12 18:23:00,46.6,25.9,29.84,NW,322,0.0,15.0,44,0.00,,,0.63,meteohub,2013-03-12 22:23:00,
2013-03-12 18:28:00,46.0,25.9,29.85,WNW,287,4.0,17.0,45,0.00,,,0.63,meteohub,2013-03-12 22:28:00,
2013-03-12 18:33:00,45.9,26.2,29.85,NW,320,7.0,19.0,46,0.00,,,0.63,meteohub,2013-03-12 22:33:00,
2013-03-12 18:38:00,45.7,27.1,29.85,NW,309,0.0,19.0,48,0.00,,,0.63,meteohub,2013-03-12 22:38:00,
2013-03-12 18:43:00,45.1,26.6,29.85,WNW,302,2.0,19.0,48,0.00,,,0.63,meteohub,2013-03-12 22:43:00,
2013-03-12 18:46:00,45.0,26.4,29.85,WNW,301,5.0,16.0,48,0.00,,,0.63,meteohub,2013-03-12 22:46:00,
2013-03-12 18:52:00,44.2,26.8,29.86,NNW,339,2.0,16.0,50,0.00,,,0.63,meteohub,2013-03-12 22:52:00,
2013-03-12 18:57:00,43.9,27.0,29.86,WNW,287,13.0,16.0,51,0.00,,,0.63,meteohub,2013-03-12 22:57:00,
2013-03-12 19:02:00,43.3,27.0,29.86,NW,305,1.0,17.0,52,0.00,,,0.63,meteohub,2013-03-12 23:02:00,
2013-03-12 19:07:00,43.3,27.3,29.86,WNW,298,12.0,17.0,53,0.00,,,0.63,meteohub,2013-03-12 23:07:00,
2013-03-12 19:12:00,42.4,27.0,29.86,NW,316,3.0,17.0,54,0.00,,,0.63,meteohub,2013-03-12 23:12:00,
2013-03-12 19:17:00,41.5,26.6,29.87,NW,323,0.0,17.0,55,0.00,,,0.63,meteohub,2013-03-12 23:17:00,
2013-03-12 19:22:00,41.2,26.6,29.87,NNW,337,1.0,17.0,56,0.00,,,0.63,meteohub,2013-03-12 23:22:00,
2013-03-12 19:27:00,40.8,26.4,29.87,NW,308,2.0,16.0,56,0.00,,,0.63,meteohub,2013-03-12 23:27:00,
2013-03-12 19:32:00,40.6,26.6,29.87,North,352,0.0,16.0,57,0.00,,,0.63,meteohub,2013-03-12 23:32:00,
2013-03-12 19:37:00,40.3,26.2,29.87,NW,304,2.0,16.0,57,0.00,,,0.63,meteohub,2013-03-12 23:37:00,
2013-03-12 19:42:00,39.9,26.4,29.87,WNW,292,7.0,13.0,58,0.00,,,0.63,meteohub,2013-03-12 23:42:00,
2013-03-12 19:47:00,39.6,26.4,29.88,NW,325,2.0,12.0,59,0.00,,,0.63,meteohub,2013-03-12 23:47:00,
2013-03-12 19:52:00,39.4,26.6,29.88,WNW,293,2.0,12.0,60,0.00,,,0.63,meteohub,2013-03-12 23:52:00,
2013-03-12 19:57:00,39.0,26.2,29.88,NW,308,3.0,12.0,60,0.00,,,0.63,meteohub,2013-03-12 23:57:00,
2013-03-12 20:02:00,38.8,26.6,29.88,NW,319,10.0,14.0,61,0.00,,,0.63,meteohub,2013-03-13 00:02:00,
2013-03-12 20:07:00,38.5,26.2,29.88,NW,304,0.0,14.0,61,0.00,,,0.00,meteohub,2013-03-13 00:07:00,
2013-03-12 20:12:00,38.5,26.6,29.88,NW,304,8.0,16.0,62,0.00,,,0.00,meteohub,2013-03-13 00:12:00,
2013-03-12 20:17:00,38.1,26.6,29.88,NW,318,5.0,19.0,63,0.00,,,0.00,meteohub,2013-03-13 00:17:00,
2013-03-12 20:22:00,37.8,26.6,29.89,NNW,338,6.0,19.0,64,0.00,,,0.00,meteohub,2013-03-13 00:22:00,
2013-03-12 20:27:00,37.6,27.0,29.89,NW,314,7.0,19.0,65,0.00,,,0.00,meteohub,2013-03-13 00:27:00,
2013-03-12 20:32:00,37.6,26.6,29.89,NW,311,5.0,14.0,64,0.00,,,0.00,meteohub,2013-03-13 00:32:00,
2013-03-12 20:37:00,37.2,25.7,29.89,WNW,303,0.0,14.0,63,0.00,,,0.00,meteohub,2013-03-13 00:37:00,
2013-03-12 20:43:00,37.2,25.0,29.89,WNW,294,0.0,13.0,61,0.00,,,0.00,meteohub,2013-03-13 00:43:00,
2013-03-12 20:48:00,37.0,23.7,29.89,WNW,300,4.0,12.0,58,0.00,,,0.00,meteohub,2013-03-13 00:48:00,
2013-03-12 20:53:00,37.0,23.2,29.89,NNW,327,2.0,12.0,57,0.00,,,0.00,meteohub,2013-03-13 00:53:00,
2013-03-12 20:58:00,37.2,23.0,29.89,NW,318,5.0,12.0,56,0.00,,,0.00,meteohub,2013-03-13 00:58:00,
2013-03-12 21:03:00,37.0,23.7,29.90,NW,325,6.0,13.0,58,0.00,,,0.00,meteohub,2013-03-13 01:03:00,
2013-03-12 21:08:00,36.9,24.3,29.90,NNW,328,6.0,13.0,60,0.00,,,0.00,meteohub,2013-03-13 01:08:00,
2013-03-12 21:13:00,36.5,24.8,29.91,WNW,290,6.0,16.0,62,0.00,,,0.00,meteohub,2013-03-13 01:13:00,
2013-03-12 21:18:00,36.1,25.2,29.91,NW,305,4.0,16.0,64,0.00,,,0.00,meteohub,2013-03-13 01:18:00,
2013-03-12 21:23:00,35.8,25.5,29.91,NW,321,7.0,16.0,66,0.00,,,0.00,meteohub,2013-03-13 01:23:00,
2013-03-12 21:28:00,35.4,25.5,29.91,NW,318,9.0,14.0,67,0.00,,,0.00,meteohub,2013-03-13 01:28:00,
2013-03-12 21:33:00,35.2,25.7,29.91,NW,321,5.0,18.0,68,0.00,,,0.00,meteohub,2013-03-13 01:33:00,
2013-03-12 21:38:00,35.1,25.5,29.91,NW,307,12.0,18.0,68,0.00,,,0.00,meteohub,2013-03-13 01:38:00,
2013-03-12 21:43:00,35.1,25.5,29.91,WNW,294,12.0,25.0,68,0.00,,,0.00,meteohub,2013-03-13 01:43:00,
2013-03-12 21:48:00,35.1,25.5,29.91,NW,326,6.0,25.0,68,0.00,,,0.00,meteohub,2013-03-13 01:48:00,
2013-03-12 21:53:00,34.9,25.7,29.91,NW,306,8.0,25.0,69,0.00,,,0.00,meteohub,2013-03-13 01:53:00,
2013-03-12 21:58:00,34.9,25.7,29.92,WNW,291,13.0,20.0,69,0.00,,,0.00,meteohub,2013-03-13 01:58:00,
2013-03-12 22:03:00,34.9,25.7,29.92,NNW,333,7.0,20.0,69,0.00,,,0.00,meteohub,2013-03-13 02:03:00,
2013-03-12 22:08:00,34.7,25.9,29.92,NW,317,11.0,20.0,70,0.00,,,0.00,meteohub,2013-03-13 02:08:00,
2013-03-12 22:13:00,34.7,26.2,29.92,WNW,298,8.0,18.0,71,0.00,,,0.00,meteohub,2013-03-13 02:13:00,
2013-03-12 22:18:00,34.5,26.4,29.93,NNW,332,0.0,17.0,72,0.00,,,0.00,meteohub,2013-03-13 02:18:00,
2013-03-12 22:23:00,34.3,26.2,29.93,NNW,333,1.0,17.0,72,0.00,,,0.00,meteohub,2013-03-13 02:23:00,
2013-03-12 22:28:00,34.3,26.2,29.93,NW,313,4.0,16.0,72,0.00,,,0.00,meteohub,2013-03-13 02:28:00,
2013-03-12 22:33:00,34.3,26.2,29.92,WNW,299,7.0,11.0,72,0.00,,,0.00,meteohub,2013-03-13 02:33:00,
2013-03-12 22:38:00,34.3,25.9,29.92,NNW,335,0.0,11.0,71,0.00,,,0.00,meteohub,2013-03-13 02:38:00,
2013-03-12 22:43:00,34.3,25.9,29.92,NW,316,3.0,11.0,71,0.00,,,0.00,meteohub,2013-03-13 02:43:00,
2013-03-12 22:48:00,34.3,25.9,29.92,NW,310,4.0,10.0,71,0.00,,,0.00,meteohub,2013-03-13 02:48:00,
2013-03-12 22:53:00,34.2,25.7,29.92,WNW,295,5.0,9.0,71,0.00,,,0.00,meteohub,2013-03-13 02:53:00,
2013-03-12 22:59:00,34.2,25.7,29.93,NNW,333,2.0,9.0,71,0.00,,,0.00,meteohub,2013-03-13 02:59:00,
2013-03-12 23:04:00,34.2,25.7,29.93,WNW,290,5.0,13.0,71,0.00,,,0.00,meteohub,2013-03-13 03:04:00,
2013-03-12 23:09:00,34.2,25.7,29.93,WNW,292,7.0,19.0,71,0.00,,,0.00,meteohub,2013-03-13 03:09:00,
2013-03-12 23:14:00,34.2,25.7,29.93,NW,310,4.0,19.0,71,0.00,,,0.00,meteohub,2013-03-13 03:14:00,
2013-03-12 23:19:00,34.3,25.9,29.93,NNW,337,6.0,19.0,71,0.00,,,0.00,meteohub,2013-03-13 03:19:00,
2013-03-12 23:24:00,34.3,25.9,29.93,NNW,334,0.0,14.0,71,0.00,,,0.00,meteohub,2013-03-13 03:24:00,
2013-03-12 23:29:00,34.3,26.2,29.93,WNW,287,10.0,15.0,72,0.00,,,0.00,meteohub,2013-03-13 03:29:00,
2013-03-12 23:34:00,34.3,26.2,29.94,NNW,337,3.0,15.0,72,0.00,,,0.00,meteohub,2013-03-13 03:34:00,
2013-03-12 23:39:00,34.2,26.1,29.94,WNW,294,13.0,15.0,72,0.00,,,0.00,meteohub,2013-03-13 03:39:00,
2013-03-12 23:44:00,34.2,26.1,29.94,NW,310,7.0,19.0,72,0.00,,,0.00,meteohub,2013-03-13 03:44:00,
2013-03-12 23:49:00,34.2,26.4,29.94,NNW,337,8.0,19.0,73,0.00,,,0.00,meteohub,2013-03-13 03:49:00,
2013-03-12 23:54:00,34.2,26.4,29.93,WNW,299,9.0,22.0,73,0.00,,,0.00,meteohub,2013-03-13 03:54:00,
2013-03-12 23:59:00,34.2,26.8,29.93,NW,316,4.0,22.0,74,0.00,,,0.00,meteohub,2013-03-13 03:59:00,